This is the latest recevied weather packets stored in our database for station/object KC7WRB. If no packets are shown the sender has not sent any weather packets the latest 10 day(s).
| Time | Temp. | Humidity | Pressure | Rain* | Wind** | Luminosity | Snow |
|---|---|---|---|---|---|---|---|
| 1788566376 | 23.33° C | 25% | 1011.4 hPa | 0 mm | - | 329 W/m² | - |
| 1788566072 | 23.33° C | 26% | 1011.2 hPa | 0 mm | - | 344 W/m² | - |
| 1788565772 | 24.44° C | 24% | 1011.2 hPa | 0 mm | - | 361 W/m² | - |
| 1788565471 | 23.89° C | 25% | 1011.1 hPa | 0 mm | - | 377 W/m² | - |
| 1788565168 | 25° C | 24% | 1011.4 hPa | 0 mm | - | 395 W/m² | - |
| 1788564863 | 24.44° C | 24% | 1011.4 hPa | 0 mm | - | 412 W/m² | - |
| 1788564559 | 24.44° C | 24% | 1010.8 hPa | 0 mm | - | 431 W/m² | - |
| 1788564256 | 25° C | 23% | 1010.9 hPa | 0 mm | - | 451 W/m² | - |
| 1788563952 | 25.56° C | 23% | 1011.4 hPa | 0 mm | - | 468 W/m² | - |
| 1788563647 | 25.56° C | 23% | 1011.1 hPa | 0 mm | - | 484 W/m² | - |
| 1788563341 | 25.56° C | 22% | 1011.1 hPa | 0 mm | - | 502 W/m² | - |
| 1788563040 | 25.56° C | 22% | 1011.4 hPa | 0 mm | - | 518 W/m² | - |
| 1788562735 | 26.11° C | 22% | 1011.5 hPa | 0 mm | - | 536 W/m² | - |
| 1788562434 | 25.56° C | 23% | 1011.4 hPa | 0 mm | - | 552 W/m² | - |
| 1788562134 | 26.11° C | 22% | 1011.6 hPa | 0 mm | - | 568 W/m² | - |
| 1788561829 | 25.56° C | 22% | 1011.4 hPa | 0 mm | - | 585 W/m² | - |
| 1788561529 | 25.56° C | 22% | 1011.5 hPa | 0 mm | - | 601 W/m² | - |
| 1788561228 | 26.11° C | 22% | 1011.5 hPa | 0 mm | - | 613 W/m² | - |
| 1788560925 | 25.56° C | 22% | 1011.4 hPa | 0 mm | - | 626 W/m² | - |
| 1788560625 | 25.56° C | 23% | 1011.6 hPa | 0 mm | - | 640 W/m² | - |
| 1788560324 | 26.11° C | 22% | 1011.7 hPa | 0 mm | - | 650 W/m² | - |
| 1788560019 | 25.56° C | 22% | 1011.5 hPa | 0 mm | - | 662 W/m² | - |
| 1788559715 | 25.56° C | 22% | 1011.6 hPa | 0 mm | - | 675 W/m² | - |
| 1788559414 | 26.11° C | 23% | 1011.6 hPa | 0 mm | - | 690 W/m² | - |
| 1788559109 | 25.56° C | 22% | 1011.6 hPa | 0 mm | - | 700 W/m² | - |
* Rain latest hour (hover to see other rain measurements)
** Current wind speed in m/s (hover to see current wind gust speed)